Weather History for Klawock, AK

Change the Weather History Date:

Saturday, March 2, 2013

  Actual Average Record
Temperature  
Mean Temperature 38 °F -  
Max Temperature 45 °F 39 °F 50 °F (2003)
Min Temperature 30 °F 28 °F 18 °F (2011)
Degree Days  
Heating Degree Days 28    
Moisture  
Dew Point 34 °F    
Average Humidity 89    
Maximum Humidity 96    
Minimum Humidity 63    
Precipitation  
Precipitation 0.07 in - - ()
Sea Level Pressure  
Sea Level Pressure 30.00 in    
Wind  
Wind Speed 3 mph (NE)    
Max Wind Speed 7 mph    
Max Gust Speed -    
Visibility 8 miles    
Events Fog , Rain    
Averages and records for this station are not official NWS values.
T = Trace of Precipitation, MM = Missing Value Source: NWS Daily Summary

Daily Weather History Graph

Daily Weather History Graph

Search for Another Location

Airport:

Trip Planner

Search our weather history database for the weather conditions in past years. The results will help you decide how hot, cold, wet, or windy it might be!

Date:

Astronomy

Mar. 02, 2013 Rise Set
Actual Time 6:39 AM AKST 5:30 PM AKST
Civil Twilight 6:02 AM AKST 6:07 PM AKST
Nautical Twilight 5:20 AM AKST 6:49 PM AKST
Astronomical Twilight 4:37 AM AKST 7:32 PM AKST
Moon No Moon Rise 8:10 AM AKST (3/2)
Length of Visible Light 12h 04m
Length of Day
10h 50m
Waning Gibbous, 72% of the Moon is Illuminated
Mar 2
Waning Gibbous
Mar 4
Last Quarter
Mar 11
New
Mar 19
First Quarter
Mar 27
Full

Hourly Weather History & Observations

Time (AKST) Temp. Windchill Dew Point Humidity Pressure Visibility Wind Dir Wind Speed Gust Speed Precip Events Conditions
12:24 AM 37.4 °F 33.8 °F 35.6 °F 93% 29.93 in 10.0 mi NNE 4.6 mph - 0.00 in   Overcast
12:53 AM 37.9 °F 34.4 °F 35.1 °F 89% 29.94 in 10.0 mi NE 4.6 mph - 0.00 in   Overcast
1:53 AM 37.0 °F 33.3 °F 35.1 °F 93% 29.94 in 10.0 mi Variable 4.6 mph - N/A   Overcast
3:53 AM 37.0 °F - 34.0 °F 89% 29.92 in 10.0 mi Calm Calm - 0.00 in   Mostly Cloudy
4:21 AM 35.6 °F 32.8 °F 33.8 °F 93% 29.92 in 10.0 mi Variable 3.5 mph - N/A   Overcast
4:53 AM 37.0 °F - 35.1 °F 93% 29.92 in 7.0 mi Calm Calm - 0.01 in Rain Light Rain
5:21 AM 37.4 °F 32.8 °F 35.6 °F 93% 29.92 in 10.0 mi Variable 5.8 mph - 0.01 in   Overcast
5:32 AM 37.4 °F 33.8 °F 35.6 °F 93% 29.92 in 10.0 mi NE 4.6 mph - 0.01 in Rain Light Rain
5:39 AM 37.4 °F 34.9 °F 35.6 °F 93% 29.92 in 10.0 mi NNE 3.5 mph - 0.02 in Rain Light Rain
5:51 AM 37.4 °F 34.9 °F 35.6 °F 93% 29.92 in 10.0 mi NE 3.5 mph - 0.02 in   Overcast
5:53 AM 37.0 °F 33.3 °F 34.0 °F 89% 29.92 in 10.0 mi NE 4.6 mph - 0.02 in   Overcast
6:03 AM 37.4 °F 34.9 °F 35.6 °F 93% 29.91 in 10.0 mi NE 3.5 mph - N/A   Overcast
6:53 AM 37.0 °F - 35.1 °F 93% 29.92 in 10.0 mi Calm Calm - 0.00 in Rain Light Rain
7:31 AM 37.4 °F 34.9 °F 35.6 °F 93% 29.92 in 10.0 mi NE 3.5 mph - 0.00 in   Overcast
7:44 AM 37.4 °F 33.8 °F 35.6 °F 93% 29.92 in 10.0 mi NE 4.6 mph - 0.00 in   Overcast
7:53 AM 37.0 °F 33.3 °F 35.1 °F 93% 29.92 in 10.0 mi NE 4.6 mph - 0.00 in   Overcast
8:16 AM 37.4 °F - 35.6 °F 93% 29.92 in 10.0 mi Calm Calm - N/A   Overcast
8:53 AM 37.0 °F 32.4 °F 35.1 °F 93% 29.93 in 10.0 mi NNE 5.8 mph - N/A   Overcast
9:11 AM 37.4 °F 32.1 °F 35.6 °F 93% 29.93 in 10.0 mi Variable 6.9 mph - N/A   Overcast
9:53 AM 39.0 °F 34.0 °F 35.1 °F 86% 29.94 in 10.0 mi NE 6.9 mph - N/A   Mostly Cloudy
10:53 AM 44.1 °F 40.8 °F 36.0 °F 73% 29.95 in 10.0 mi NNE 5.8 mph - N/A   Scattered Clouds
11:53 AM 44.1 °F 40.8 °F 33.1 °F 65% 29.96 in 10.0 mi Variable 5.8 mph - N/A   Mostly Cloudy
12:53 PM 45.0 °F - 33.1 °F 63% 29.96 in 10.0 mi Calm Calm - N/A   Mostly Cloudy
1:53 PM 43.0 °F 39.5 °F 34.0 °F 71% 29.98 in 10.0 mi North 5.8 mph - N/A   Mostly Cloudy
2:21 PM 44.6 °F 42.2 °F 35.6 °F 71% 29.98 in 10.0 mi WNW 4.6 mph - N/A   Mostly Cloudy
2:53 PM 42.1 °F 40.2 °F 36.0 °F 79% 29.99 in 10.0 mi NE 3.5 mph - 0.00 in Rain Light Rain
3:49 PM 41.0 °F - 37.4 °F 87% 30.01 in 10.0 mi Calm Calm - 0.02 in Rain Light Rain
3:53 PM 41.0 °F - 37.9 °F 89% 30.01 in 10.0 mi Calm Calm - 0.02 in Rain Light Rain
4:53 PM 39.0 °F - 36.0 °F 89% 30.03 in 10.0 mi Calm Calm - 0.02 in   Overcast
5:25 PM 37.4 °F - 35.6 °F 93% 30.03 in 10.0 mi Calm Calm - N/A   Partly Cloudy
5:53 PM 35.1 °F - 33.1 °F 92% 30.05 in 10.0 mi Calm Calm - N/A   Clear
6:01 PM 35.6 °F - 33.8 °F 93% 30.05 in 9.0 mi Calm Calm - N/A   Partly Cloudy
6:53 PM 33.1 °F - 32.0 °F 96% 30.07 in 10.0 mi Calm Calm - N/A   Clear
7:53 PM 33.1 °F - 30.0 °F 89% 30.09 in 10.0 mi Calm Calm - N/A   Clear
8:53 PM 30.9 °F - 28.9 °F 92% 30.12 in 10.0 mi Calm Calm - N/A   Partly Cloudy
9:32 PM 30.2 °F - 28.4 °F 93% 30.13 in 1.8 mi Calm Calm - N/A   Scattered Clouds
9:35 PM 30.2 °F - 28.4 °F 93% 30.13 in 1.0 mi Calm Calm - N/A   Mist
9:53 PM 30.0 °F - 28.9 °F 96% 30.14 in 1.0 mi Calm Calm - N/A   Mist
10:14 PM 30.2 °F - 28.4 °F 93% 30.14 in 0.5 mi Calm Calm - N/A Fog Light Freezing Fog
10:53 PM 30.0 °F - 28.9 °F 96% 30.17 in 0.2 mi Calm Calm - N/A Fog Light Freezing Fog
11:43 PM 30.2 °F - 26.6 °F 86% 30.18 in 1.5 mi Calm Calm - N/A   Overcast
11:53 PM 30.0 °F - 28.0 °F 92% 30.19 in 0.8 mi Calm Calm - N/A   Mist